DLH1V LOWW-EDDF

Flight info

Callsign DLH1V
Flight time N/A
Altitude 30000
Route LUGEM DCT SUBEN T161 DEBHI DEBHI1C
Aircraft A321/M-SDE2E3FGIJ1LORWXYZ/HB1

Departure

Time 2026-04-30 15:00
Airport Vienna International Airport (LOWW)

Arrival

Time N/A
Airport Frankfurt Main Airport (EDDF)
Time Latitude Longitude Altitude Speed Heading
2026-04-30 14:41 48.11812 16.57042 609 ft 0 kts 206°
2026-04-30 14:52 48.11830 16.57055 613 ft 4 kts 200°
2026-04-30 14:52 48.11856 16.57065 609 ft 4 kts 182°
2026-04-30 14:53 48.11885 16.57051 609 ft 0 kts 116°
2026-04-30 14:55 48.11871 16.57094 623 ft 8 kts 116°
2026-04-30 14:56 48.11811 16.57330 625 ft 13 kts 141°
2026-04-30 14:56 48.11603 16.57437 610 ft 18 kts 165°
2026-04-30 14:57 48.11487 16.57455 615 ft 15 kts 200°
2026-04-30 14:57 48.11277 16.57307 614 ft 18 kts 206°
2026-04-30 14:58 48.11075 16.57158 623 ft 7 kts 206°
2026-04-30 14:58 48.11059 16.57097 613 ft 7 kts 281°
2026-04-30 14:58 48.11230 16.56558 620 ft 87 kts 296°
2026-04-30 14:59 48.12089 16.53904 1116 ft 162 kts 293°
2026-04-30 15:00 48.11771 16.48540 2740 ft 200 kts 253°
2026-04-30 15:00 48.10833 16.44312 3567 ft 231 kts 252°
2026-04-30 15:01 48.09949 16.39270 4575 ft 263 kts 257°
2026-04-30 15:01 48.09699 16.37482 5080 ft 267 kts 264°
2026-04-30 15:01 48.10056 16.30992 6921 ft 272 kts 278°
2026-04-30 15:02 48.10285 16.28167 7694 ft 275 kts 278°
2026-04-30 15:02 48.10519 16.25305 8441 ft 279 kts 278°
2026-04-30 15:03 48.11236 16.16456 10352 ft 302 kts 278°
2026-04-30 15:03 48.11785 16.09753 10748 ft 344 kts 278°
2026-04-30 15:04 48.12367 16.02503 11866 ft 356 kts 278°
2026-04-30 15:04 48.13246 15.91353 13681 ft 367 kts 278°
2026-04-30 15:05 48.14151 15.79823 15425 ft 377 kts 278°
2026-04-30 15:06 48.14760 15.71958 16547 ft 384 kts 278°
2026-04-30 15:06 48.15371 15.63945 17656 ft 390 kts 278°
2026-04-30 15:07 48.15988 15.55808 18671 ft 396 kts 278°
2026-04-30 15:07 48.16610 15.47549 19622 ft 402 kts 278°
2026-04-30 15:08 48.17248 15.39172 20549 ft 407 kts 281°
2026-04-30 15:08 48.18966 15.26602 21848 ft 415 kts 284°
2026-04-30 15:09 48.20135 15.18083 22691 ft 419 kts 284°
2026-04-30 15:09 48.21305 15.09459 23481 ft 425 kts 284°
2026-04-30 15:10 48.22482 15.00715 24245 ft 430 kts 284°
2026-04-30 15:11 48.24853 14.82975 25650 ft 440 kts 284°
2026-04-30 15:11 48.26051 14.73925 26332 ft 445 kts 284°
2026-04-30 15:12 48.27857 14.60158 27313 ft 451 kts 284°
2026-04-30 15:13 48.29071 14.50860 27947 ft 456 kts 284°
2026-04-30 15:14 48.31494 14.31995 29130 ft 464 kts 284°
2026-04-30 15:14 48.33324 14.17637 29876 ft 469 kts 284°
2026-04-30 15:16 48.36304 13.93958 30402 ft 452 kts 284°
2026-04-30 15:17 48.38603 13.75388 30403 ft 451 kts 284°
2026-04-30 15:19 48.43117 13.38139 30393 ft 453 kts 284°